Location: Petruro
(41.0333°N, 14.7833°E)
Time: 10:48:57
(UTC+00:00)

ERBS - Pass Details

Date: 20 June 2021
Orbit: 397 x 417 km, 57.0° (Epoch: 27 July)

Event Time Altitude Azimuth Distance (km) Brightness Sun altitude
Exits shadow 02:23:32 12° 259° (W) 1,312 4.3 -10.4°
Maximum altitude 02:26:06 32° 322° (NW) 717 3.5 -10.1°
Drops below altitude 10° 02:29:03 10° 27° (NNE) 1,453 6.3 -9.7°
Sets 02:31:16 0° 38° (NE) 2,318 8.1 -9.4°
